User: anonymous   Login
Location: Kalberh�ni
(46.4610°N, 7.2453°E)
Time: 14:45:39
(UTC+00:00)
Language:

Meteor 2-20 Rocket - Orbit

View from above orbital plane
View from above orbital plane
View from above satellite
View from above satellite

Ground track
Ground track

The orbit data is extracted from the following two-line orbital elements,

1 20827U 90086B   21264.95027356  .00000043  00000-0  25255-4 0  9994
2 20827  82.5268 140.0882 0012121 206.8931 153.1602 13.83906390564837
Epoch (UTC): 21 September 2021 22:48:23
Eccentricity: 0.0012121
inclination: 82.5268°
perigee height: 941 km
apogee height: 959 km
right ascension of ascending node: 140.0882°
argument of perigee: 206.8931°
revolutions per day: 13.83906390
mean anomaly at epoch: 153.1602°
orbit number at epoch: 56483

The dashed part of the orbit path shows where the satellite is in the earth's shadow,  

DLR